Погода в Лас-Тунас

Куба     20°57′36″N   76°57′24″W
темп.,
°C
ветер,
м/с
пор.,
м/с
влажн.,
%
обл.,
%
осадки,
мм/ч
давл.,
гПа
погр.,
м
14 июня, пн
пн1423:00+25св2288100 0.9 101634
02:00+24всв1189100 0.9 101512
05:00+23в2390100 0.0 101542
08:00+25вюв2388100 0.0 1016151
11:00+29вюв2370100 0.0 1017787
14:00+31вюв2362100 0.0 10161249
17:00+31всв236691 0.1 10141061
20:00+26св488899 0.4 1016219
15 июня, вт
вт1523:00+24всв379210 0.0 1017200
02:00+24всв2395100 0.3 101670
05:00+24всв2394100 0.1 101668
08:00+25вюв238894 0.1 1017180
11:00+29вюв3471100 0.0 1018831
14:00+32юв346187 0.0 10161345
17:00+32вюв2358100 0.2 10151404
20:00+26св4790100 3.0 1016158
16 июня, ср
ср1623:00+25всв379280 1.0 1018162
02:00+24всв2494100 1.0 1016118
05:00+24всв249594 0.0 101592
08:00+25в3489100 0.0 1016223
11:00+30вюв3371100 0.0 10161023
14:00+33вюв235694 0.3 10151802
17:00+30св4472100 3.4 1014387
20:00+26св3485100 5.4 101561
17 июня, чт
чт1723:00+25св3793100 0.1 1017175
02:00+24всв389677 0.1 1016229
05:00+24в379898 0.0 1015220
08:00+25в359239 0.0 1016320
11:00+29вюв227147 0.0 10161068
14:00+31всв226199 0.3 10141038
17:00+30ссв446866 1.6 1014813
20:00+26св4990100 2.4 1015295
18 июня, пт
пт1823:00+24всв499679 1.2 1017310
02:00+24всв3996100 1.2 1016389
05:00+24в41196100 0.0 1015466
08:00+25в4119378 0.0 1016508
11:00+28вюв5677100 0.0 1017835
14:00+32вюв4558100 0.1 10151657
17:00+30св667134 0.8 1015949
20:00+25всв5108873 1.8 1016342